Location: Berville
(49.1893°N, 2.0748°E)
Time: 11:46:46
(UTC+00:00)

Cosmos 1606 - Pass Details

Date: 08 February 2023
Orbit: 488 x 509 km, 82.5° (Epoch: 26 March)

Event Time Altitude Azimuth Distance (km) Brightness Sun altitude
Rises 18:33:20 0° 350° (N) 2,655 6.4 -15.7°
Reaches altitude 10° 18:35:29 10° 350° (N) 1,762 5.5 -16.0°
Maximum altitude 18:39:22 89° 268° (W) 525 2.6 -16.6°
Drops below altitude 10° 18:43:11 10° 172° (S) 1,741 5.3 -17.3°
Sets 18:45:18 0° 172° (S) 2,619 6.2 -17.6°
